Regional Weather Roundup
Issued by NWS Wakefield, VA

Home | Current Version | Previous Version | Graphics & Text | Print | Product List | Glossary On
Versions: 1 2 3 4 5 6 7 8 9 10 11 12 13 14 15 16 17 18 19 20 21 22 23 24 25 26 27 28 29 30 31 32 33 34 35 36 37 38 39 40 41 42 43 44 45 46 47 48 49 50
000
ASUS41 KAKQ 270614
RWRAKQ

REGIONAL WEATHER ROUNDUP
NATIONAL WEATHER SERVICE WAKEFIELD VA
200 AM EDT MON APR 27 2015

Note: "fair" indicates few or no clouds below 12,000 feet with no
significant weather and/or obstructions to visibility. * = Denotes
station may not report precipitation (e.g., rain,snow,etc.),
thunder or fog.

VAZ042-051-052>054-056-270700-
NORTHERN VIRGINIA

CITY           SKY/WX    TMP DP  RH WIND       PRES   REMARKS
WASH NATIONAL  PTCLDY    54  32  43 N16       29.75R
DULLES         PTCLDY    48  33  56 NE9       29.75R
FORT BELVOIR   PTCLDY    44  38  81 N3        29.74R
QUANTICO       CLEAR     44  38  79 NW8       29.74S
FREDERICKSBRG* CLEAR     43  43 100 CALM      29.72S
STAFFORD*      CLEAR     41  50 100 N3        29.77R
WARRENTON      PTCLDY    40  38  94 CALM      29.74R
CULPEPER*      CLEAR     41  39  93 CALM      29.73S
MANASSAS*      CLOUDY    43  41  93 N6        29.74S
LEESBURG*      CLOUDY    50  36  57 N6        29.77R
WINCHESTER     CLEAR     50  23  34 N5        29.76S
FRONT ROYAL*   FAIR      50  32  50 N5        29.75S
LURAY*         FAIR      45  39  81 CALM      29.76R
$$

VAZ048-049-060>072-079>083-270700-
CENTRAL AND SOUTH CENTRAL VIRGINIA

CITY           SKY/WX    TMP DP  RH WIND       PRES   REMARKS
RICHMOND       CLEAR     46  40  79 S3        29.73F
CHESTERFIELD*  FAIR      43  30  61 CALM      29.75S
PETERSBURG*    CLEAR     38  38  98 CALM      29.75S FOG
HANOVER        CLEAR     42  40  92 CALM      29.74F
TAPPAHANNOCK*  CLEAR     40  36  86 CALM      29.73S
QUINTON*       FAIR      41  40  97 CALM      29.73F
CHARLOTTSVILLE CLEAR     43  39  86 CALM      29.73S
GORDONSVILLE*  FAIR      37  36  94 CALM      29.73S
ORANGE*        CLEAR     39  37  93 CALM      29.74S
LOUISA*        CLEAR     39  37  93 CALM      29.72S
BUMPASS*       FAIR      40  38  91 CALM      29.73S
FARMVILLE*     CLEAR     42  42 100 CALM      29.74F
CREWE*         FAIR      40  38  96 CALM      29.74F
FORT PICKETT*  FAIR      41  40  98 CALM      29.74F
CHASE CITY*    MOCLDY    45  45 100 CALM      29.76S
CLARKSVILLE*   FAIR      41  39  93 CALM      29.76S
SOUTH HILL*    CLEAR     40  39  96 CALM      29.81F
LAWRENCEVILLE*   N/A     41  41 100 CALM      29.75S
EMPORIA*       FOG       37  37 100 CALM      29.77F VSB 3/4
$$

VAZ088>098-270700-
SOUTHEAST VIRGINIA

CITY           SKY/WX    TMP DP  RH WIND       PRES   REMARKS
NORFOLK        CLEAR     46  40  79 S3        29.73S
VIRGINIA BEACH CLEAR     43  39  86 W5        29.73S
NORFOLK NAVAL  CLEAR     48  42  80 CALM      29.75R
WEST POINT*    CLEAR     43  40  91 CALM      29.74F
SALUDA*        FAIR      41  39  94 SW3       29.72F
NEWPORT NEWS   CLEAR     46  42  86 CALM      29.74R
LANGLEY AFB    CLEAR     45  42  91 W2        29.73R
FORT EUSTIS    CLEAR     46  46 100 NE2       29.72R
WILLIAMSBURG*  CLEAR     46  45  93 CALM      29.74S
HR EXEC AP*    FAIR      39  36  87 CALM      29.76R
FRANKLIN*      CLEAR     40  40  97 CALM      29.75F
WAKEFIELD      CLEAR     42  39  89 CALM      29.75S
$$

VAZ020-022-025-037-045-270700-
WEST CENTRAL AND SOUTHWEST VIRGINIA

CITY           SKY/WX    TMP DP  RH WIND       PRES   REMARKS
STAUNTON*      CLEAR     38  35  89 CALM      29.78S
WAYNESBORO*    FAIR      39  37  94 CALM      29.76S
HOT SPRINGS VA CLEAR     39  32  75 NW5       29.75F
LYNCHBURG      CLEAR     37  37 100 CALM      29.77S FOG
DANVILLE       PTCLDY    42  39  89 S3        29.78S
SOUTH BOSTON*  MOCLDY    40  39  95 CALM      29.77S
MARTINSVILLE   FOG       42  42 100 CALM      29.80F VSB 3/4
ROANOKE        CLEAR     46  41  82 W7        29.79F
BLACKSBURG     CLEAR     38  37  97 CALM      29.82F
DUBLIN*        CLEAR     45  41  85 W6        29.82S
MARION*        MOCLDY    42  40  93 W7        29.84F
HILLSVILLE*    CLOUDY    44  38  80 NW13      29.79F
RICHLANDS*     FAIR      41  38  89 W7        29.83S
WISE*          CLEAR     45  34  65 N6        29.85F
ABINGDON*      CLOUDY    47  44  87 CALM      29.83S
$$

MDZ021>025-VAZ099-100-270700-
SOUTHERN MARYLAND AND THE DELMARVA PENINSULA

CITY           SKY/WX    TMP DP  RH WIND       PRES   REMARKS
PATUXENT RIVER CLEAR     39  37  92 CALM      29.71F
BAY BRIDGE APT   N/A    N/A N/A N/A N6        29.74S
LEONARDTOWN    CLEAR     41  37  87 CALM      29.73S
DOVER          CLEAR     41  36  83 N6        29.69S
GEORGETOWN     CLEAR     41  36  82 CALM      29.72F
EASTON         CLEAR     43  40  88 CALM      29.76F
CAMBRIDGE      CLEAR     43  37  81 CALM      29.71F
SALISBURY      CLEAR     41  37  86 CALM      29.71F
OCEAN CITY     CLEAR     38  37  97 CALM      29.71F
WALLOPS ISLAND CLEAR     41  40  96 CALM      29.72F
ACCOMACK*      CLEAR     39  30  70 CALM      29.72F
$$

NCZ012>017-030>032-270700-
NORTH CENTRAL AND EASTERN NORTH CAROLINA

CITY           SKY/WX    TMP DP  RH WIND       PRES   REMARKS
ROANOKE RAPIDS FAIR      43  41  93 CALM      29.76S
RALEIGH        PTCLDY    44  42  93 CALM      29.79R
ELIZABETH CITY CLEAR     43  41  93 CALM      29.75S
AHOSKIE*       FOG       42  42  99 CALM      29.77R VSB 1/2
EDENTON*       CLEAR     42  42  97 CALM      29.75S
CURRITUCK*     CLEAR     45  41  87 CALM      29.75S
KILL DEVIL HLS CLEAR     50  39  67 CALM      29.72F
MANTEO         CLEAR     45  38  75 CALM      29.74S
CAPE HATTERAS  PTCLDY    51  41  68 NE8       29.72S
TARBORO*       FAIR      42  42  97 CALM      29.77S FOG
GOLDSBORO      MOCLDY    48  47  97 CALM      29.75F
WASHINGTON       N/A     44  43  97 CALM      29.76F
GREENVILLE     CLEAR     45  45 100 CALM      29.79S
NEW BERN       MOCLDY    50  46  86 NW5       29.76F
WILMINGTON     CLOUDY    51  49  92 NW6       29.77S
$$

VAZ048-270700-
ELSEWHERE

CITY           SKY/WX    TMP DP  RH WIND       PRES   REMARKS
HARRISBURG PA  PTCLDY    43  31  62 NW3       29.75S
BALTIMORE      PTCLDY    48  29  47 N5        29.75S
ANNAPOLIS      CLEAR     52  37  56 N8        29.73S
ANDREWS AFB    CLEAR     44  34  67 N10       29.73R
PHILADELPHIA   CLEAR     52  27  38 NW7       29.74F
HENDERSON NC   CLEAR     43  41  93 CALM      29.77S
GREENSBORO     PTCLDY    45  43  93 SW6       29.78R
ROCKY MOUNT    CLEAR     45  44  97 CALM      29.78R
$$

VAZ100-270700-
MARINE

STATION/POSITION TIME  TEMP    WIND        PRES    WAVE   SWELL
                       AIR SEA DIR/SP/G            HT/PER HT/PER
                 (UTC) (F)     (DEG/KT/KT) (MB)    (FT/S) (FT/S)
BRANDYWINE LGT   0500   50 52  250/  6/  7 1006.7R
CAPE MAY NJ      0500   50 54  250/  4/  4 1006.3R
LEWES DE         0500   45 52  250/  3/  3 1006.3S
15NM E FENWICK I 0550   48 48              1005.7F   2/ 7
OCEAN-CITY-INLET 0500   48 51  220/  5/  5 1006.1F
WACHAPREAGUE VA  0500   45 57  260/  2/  3 1006.7F
THOMAS POINT MD  0600   54 53   10/ 17/ 19 1007.1F
GOOSES REEF MD   0600   52 53  350/  8/ 12   N/A     1/ 2
COVE POINT MD    0500   52      CALM  /  2 1007.0F
SOLOMONS ISLAND  0500      56                N/A
BISHOPS HEAD MD  0500   53 57  180/  9/ 11 1005.9F
PINEY POINT MD   0500          170/  1/  2   N/A
CAMBRIDGE MD     0500   47 59  200/  3/  5 1006.1F
LEWISETTA VA     0500   51 57              1006.0F
RAPPAHANNOCK LGT 0500          170/  6/  7 1007.0F
YORK RVR RNG VA  0500   54     210/  4/  5 1006.2S
YORKTOWN VA      0500          190/  2/  3   N/A
JAMESTOWN VA     0600   50 62  280/  4/  6 1006.0S
DOMINION TERM VA 0500   54     190/  4/  5 1006.9S
KIPTOPEKE VA     0500      62  140/  2/  3   N/A
CHES BAY BRIDGE  0500   53 57  170/  5/  5 1006.3F
CAPE HENRY VA    0500   50     180/  4/  5 1005.5
CHESAPEAKE LGHT  0500   51      80/  6/  6 1007.5F
WILLOUBY STN VA  0500   52     160/  6/  6 1007.3F
S CRANEY ISL VA  0500          190/  3/  4 1006.7
CAPE HENRY BUOY  0528      51                N/A     3/ 6
OFFSHORE WE BUOY 0511      50                N/A     4/ 5   3/ 5
64NM E OF VA BCH 0550   54 55  350/ 12/ 14 1005.3F   5/ 7   3/ 7
DUCK PIER NC     0500   53 54   30/  6/  7 1006.0R
44056 DUCK FRF   0511      54                N/A     4/ 6
OREGON INLET NC  0500   48 55  340/  4/  5 1006.8R
HATTERAS NC      0500           10/ 13/ 17   N/A
DIAMOND SHLS NC  0550   59 76   10/ 19/ 23 1005.1    6/10   3/10
CAPE LOOKOUT NC  0600   54     360/  9/ 12 1006.1F
$$


USA.gov is the U.S. government's official web portal to all federal, state and local government web resources and services.